Time,TemperatureF,DewpointF,PressureIn,WindDirection,WindDirectionDegrees,WindSpeedMPH,WindSpeedGustMPH,Humidity,HourlyPrecipIn,Conditions,Clouds,dailyrainin,SoftwareType,DateUTC
2013-06-16 00:03:00,47.5,44.6,30.14,North,0,0.0,-999.0,89,0.00,,,-99.99,,2013-06-16 08:03:00,
2013-06-16 00:08:00,47.7,44.9,30.14,North,0,0.0,-999.0,89,0.00,,,-99.99,,2013-06-16 08:08:00,
2013-06-16 00:13:00,47.8,45.0,30.14,North,0,0.0,-999.0,89,0.00,,,-99.99,,2013-06-16 08:13:00,
2013-06-16 00:18:00,47.8,45.0,30.14,North,0,0.0,-999.0,89,0.00,,,-99.99,,2013-06-16 08:18:00,
2013-06-16 00:23:00,48.0,45.1,30.14,North,0,0.0,-999.0,89,0.00,,,-99.99,,2013-06-16 08:23:00,
2013-06-16 00:28:00,48.1,45.2,30.14,North,0,0.0,-999.0,89,0.00,,,-99.99,,2013-06-16 08:28:00,
2013-06-16 00:33:00,48.1,45.2,30.14,North,0,0.0,-999.0,89,0.00,,,-99.99,,2013-06-16 08:33:00,
2013-06-16 00:38:00,48.4,45.4,30.14,North,0,0.0,-999.0,89,0.00,,,-99.99,,2013-06-16 08:38:00,
2013-06-16 00:43:00,48.7,45.9,30.14,North,0,0.0,-999.0,89,0.00,,,-99.99,,2013-06-16 08:43:00,
2013-06-16 00:48:00,48.7,45.9,30.14,North,0,0.0,-999.0,90,0.00,,,-99.99,,2013-06-16 08:48:00,
2013-06-16 00:53:00,48.6,45.8,30.14,North,0,0.0,-999.0,89,0.00,,,-99.99,,2013-06-16 08:53:00,
2013-06-16 00:58:00,48.5,45.7,30.14,North,0,0.0,-999.0,89,0.00,,,-99.99,,2013-06-16 08:58:00,
2013-06-16 01:03:00,48.7,46.0,30.14,North,0,0.0,-999.0,90,0.00,,,-99.99,,2013-06-16 09:03:00,
2013-06-16 01:08:00,48.5,45.8,30.14,North,0,0.0,-999.0,90,0.00,,,-99.99,,2013-06-16 09:08:00,
2013-06-16 01:13:00,48.3,45.6,30.14,North,0,0.0,-999.0,90,0.00,,,-99.99,,2013-06-16 09:13:00,
2013-06-16 01:18:00,48.4,45.8,30.14,North,0,0.0,-999.0,90,0.00,,,-99.99,,2013-06-16 09:18:00,
2013-06-16 01:23:00,48.3,45.6,30.14,North,0,0.0,-999.0,90,0.00,,,-99.99,,2013-06-16 09:23:00,
2013-06-16 01:28:00,48.5,45.9,30.14,North,0,0.0,-999.0,90,0.00,,,-99.99,,2013-06-16 09:28:00,
2013-06-16 01:33:00,48.6,46.1,30.14,North,0,0.0,-999.0,91,0.00,,,-99.99,,2013-06-16 09:33:00,
2013-06-16 01:38:00,48.4,46.0,30.14,North,0,0.0,-999.0,91,0.00,,,-99.99,,2013-06-16 09:38:00,
2013-06-16 01:43:00,48.5,46.0,30.14,North,0,0.0,-999.0,91,0.00,,,-99.99,,2013-06-16 09:43:00,
2013-06-16 01:48:00,48.4,45.9,30.14,North,0,0.0,-999.0,90,0.00,,,-99.99,,2013-06-16 09:48:00,
2013-06-16 01:53:00,48.6,46.0,30.14,North,0,0.0,-999.0,90,0.00,,,-99.99,,2013-06-16 09:53:00,
2013-06-16 01:58:00,48.5,45.9,30.14,North,0,0.0,-999.0,90,0.00,,,-99.99,,2013-06-16 09:58:00,
2013-06-16 02:03:00,48.6,46.2,30.15,North,0,0.0,-999.0,91,0.00,,,-99.99,,2013-06-16 10:03:00,
2013-06-16 02:08:00,48.6,46.0,30.15,North,0,0.0,-999.0,90,0.00,,,-99.99,,2013-06-16 10:08:00,
2013-06-16 02:13:00,48.6,46.0,30.15,North,0,0.0,-999.0,90,0.00,,,-99.99,,2013-06-16 10:13:00,
2013-06-16 02:18:00,48.2,45.6,30.15,North,0,0.0,-999.0,90,0.00,,,-99.99,,2013-06-16 10:18:00,
2013-06-16 02:23:00,48.1,45.5,30.15,North,0,0.0,-999.0,90,0.00,,,-99.99,,2013-06-16 10:23:00,
2013-06-16 02:28:00,48.1,45.6,30.15,North,0,0.0,-999.0,90,0.00,,,-99.99,,2013-06-16 10:28:00,
2013-06-16 02:33:00,48.2,45.8,30.15,North,0,0.0,-999.0,91,0.00,,,-99.99,,2013-06-16 10:33:00,
2013-06-16 02:38:00,48.0,45.7,30.15,North,0,0.0,-999.0,91,0.00,,,-99.99,,2013-06-16 10:38:00,
2013-06-16 02:43:00,48.0,45.5,30.15,North,0,0.0,-999.0,90,0.00,,,-99.99,,2013-06-16 10:43:00,
2013-06-16 02:48:00,48.1,45.8,30.15,North,0,0.0,-999.0,91,0.00,,,-99.99,,2013-06-16 10:48:00,
2013-06-16 02:53:00,48.0,45.5,30.15,North,0,0.0,-999.0,90,0.00,,,-99.99,,2013-06-16 10:53:00,
2013-06-16 02:58:00,47.8,45.2,30.15,North,0,0.0,-999.0,90,0.00,,,-99.99,,2013-06-16 10:58:00,
2013-06-16 03:03:00,47.5,45.0,30.14,North,0,0.0,-999.0,91,0.00,,,-99.99,,2013-06-16 11:03:00,
2013-06-16 03:08:00,47.5,45.1,30.14,North,0,0.0,-999.0,91,0.00,,,-99.99,,2013-06-16 11:08:00,
2013-06-16 03:13:00,47.5,45.2,30.14,North,0,0.0,-999.0,91,0.00,,,-99.99,,2013-06-16 11:13:00,
2013-06-16 03:18:00,47.5,45.4,30.14,North,0,0.0,-999.0,92,0.00,,,-99.99,,2013-06-16 11:18:00,
2013-06-16 03:23:00,47.5,45.3,30.14,North,0,0.0,-999.0,91,0.00,,,-99.99,,2013-06-16 11:23:00,
2013-06-16 03:28:00,47.5,45.4,30.14,North,0,0.0,-999.0,92,0.00,,,-99.99,,2013-06-16 11:28:00,
2013-06-16 03:33:00,47.8,45.7,30.14,North,0,0.0,-999.0,92,0.00,,,-99.99,,2013-06-16 11:33:00,
2013-06-16 03:38:00,47.8,45.8,30.14,North,0,0.0,-999.0,92,0.00,,,-99.99,,2013-06-16 11:38:00,
2013-06-16 03:43:00,47.8,45.8,30.14,North,0,0.0,-999.0,92,0.00,,,-99.99,,2013-06-16 11:43:00,
2013-06-16 03:48:00,48.0,46.0,30.14,North,0,0.0,-999.0,92,0.00,,,-99.99,,2013-06-16 11:48:00,
2013-06-16 03:53:00,48.1,46.0,30.14,North,0,0.0,-999.0,92,0.00,,,-99.99,,2013-06-16 11:53:00,
2013-06-16 03:58:00,47.8,45.5,30.14,North,0,0.0,-999.0,91,0.00,,,-99.99,,2013-06-16 11:58:00,
2013-06-16 04:03:00,47.6,45.4,30.14,North,0,0.0,-999.0,92,0.00,,,-99.99,,2013-06-16 12:03:00,
2013-06-16 04:08:00,47.6,45.4,30.14,North,0,0.0,-999.0,92,0.00,,,-99.99,,2013-06-16 12:08:00,
2013-06-16 04:13:00,47.5,45.4,30.14,North,0,0.0,-999.0,92,0.00,,,-99.99,,2013-06-16 12:13:00,
2013-06-16 04:18:00,47.5,45.5,30.14,North,0,0.0,-999.0,92,0.00,,,-99.99,,2013-06-16 12:18:00,
2013-06-16 04:23:00,47.6,45.5,30.14,North,0,0.0,-999.0,92,0.00,,,-99.99,,2013-06-16 12:23:00,
2013-06-16 04:28:00,47.5,45.5,30.14,North,0,0.0,-999.0,92,0.00,,,-99.99,,2013-06-16 12:28:00,
2013-06-16 04:33:00,47.5,45.6,30.14,North,0,0.0,-999.0,93,0.00,,,-99.99,,2013-06-16 12:33:00,
2013-06-16 04:38:00,47.8,45.9,30.14,North,0,0.0,-999.0,92,0.00,,,-99.99,,2013-06-16 12:38:00,
2013-06-16 04:43:00,47.6,45.6,30.14,North,0,0.0,-999.0,92,0.00,,,-99.99,,2013-06-16 12:43:00,
2013-06-16 04:48:00,47.7,45.8,30.14,North,0,0.0,-999.0,93,0.00,,,-99.99,,2013-06-16 12:48:00,
2013-06-16 04:53:00,47.6,45.7,30.14,North,0,0.0,-999.0,93,0.00,,,-99.99,,2013-06-16 12:53:00,
2013-06-16 04:58:00,47.6,45.7,30.14,North,0,0.0,-999.0,93,0.00,,,-99.99,,2013-06-16 12:58:00,
2013-06-16 05:03:00,47.5,45.7,30.13,North,0,0.0,-999.0,93,0.00,,,-99.99,,2013-06-16 13:03:00,
2013-06-16 05:08:00,47.5,45.7,30.13,North,0,0.0,-999.0,93,0.00,,,-99.99,,2013-06-16 13:08:00,
2013-06-16 05:13:00,47.4,45.6,30.13,North,0,0.0,-999.0,93,0.00,,,-99.99,,2013-06-16 13:13:00,
2013-06-16 05:18:00,47.6,45.9,30.13,North,0,0.0,-999.0,93,0.00,,,-99.99,,2013-06-16 13:18:00,
2013-06-16 05:23:00,47.9,46.2,30.13,North,0,0.0,-999.0,93,0.00,,,-99.99,,2013-06-16 13:23:00,
2013-06-16 05:28:00,47.7,45.9,30.13,North,0,0.0,-999.0,93,0.00,,,-99.99,,2013-06-16 13:28:00,
2013-06-16 05:33:00,47.7,45.8,30.13,North,0,0.0,-999.0,93,0.00,,,-99.99,,2013-06-16 13:33:00,
2013-06-16 05:38:00,47.6,45.8,30.13,North,0,0.0,-999.0,93,0.00,,,-99.99,,2013-06-16 13:38:00,
2013-06-16 05:43:00,47.6,45.9,30.13,North,0,0.0,-999.0,93,0.00,,,-99.99,,2013-06-16 13:43:00,
2013-06-16 05:48:00,47.8,46.0,30.13,North,0,0.0,-999.0,93,0.00,,,-99.99,,2013-06-16 13:48:00,
2013-06-16 05:53:00,47.9,46.2,30.13,North,0,0.0,-999.0,93,0.00,,,-99.99,,2013-06-16 13:53:00,
2013-06-16 05:58:00,48.1,46.2,30.13,North,0,0.0,-999.0,93,0.00,,,-99.99,,2013-06-16 13:58:00,
2013-06-16 06:03:00,48.0,46.1,30.14,North,0,0.0,-999.0,93,0.00,,,-99.99,,2013-06-16 14:03:00,
2013-06-16 06:08:00,48.2,46.3,30.14,North,0,0.0,-999.0,93,0.00,,,-99.99,,2013-06-16 14:08:00,
2013-06-16 06:13:00,48.4,46.3,30.14,North,0,0.0,-999.0,92,0.00,,,-99.99,,2013-06-16 14:13:00,
2013-06-16 06:18:00,48.9,46.8,30.14,North,0,0.0,-999.0,92,0.00,,,-99.99,,2013-06-16 14:18:00,
2013-06-16 06:23:00,49.1,46.7,30.14,North,0,0.0,-999.0,91,0.00,,,-99.99,,2013-06-16 14:23:00,
2013-06-16 06:28:00,49.3,46.9,30.14,North,0,0.0,-999.0,91,0.00,,,-99.99,,2013-06-16 14:28:00,
2013-06-16 06:33:00,49.8,47.3,30.14,North,0,0.0,-999.0,90,0.00,,,-99.99,,2013-06-16 14:33:00,
2013-06-16 06:38:00,50.5,47.8,30.14,North,0,0.0,-999.0,90,0.00,,,-99.99,,2013-06-16 14:38:00,
2013-06-16 06:43:00,51.3,48.4,30.14,North,0,0.0,-999.0,89,0.00,,,-99.99,,2013-06-16 14:43:00,
2013-06-16 06:48:00,52.3,48.6,30.14,North,0,0.0,-999.0,87,0.00,,,-99.99,,2013-06-16 14:48:00,
2013-06-16 06:53:00,53.1,48.9,30.14,North,0,0.0,-999.0,85,0.00,,,-99.99,,2013-06-16 14:53:00,
2013-06-16 06:58:00,54.1,48.8,30.14,North,0,0.0,-999.0,82,0.00,,,-99.99,,2013-06-16 14:58:00,
2013-06-16 07:03:00,54.3,48.8,30.14,North,0,0.0,-999.0,81,0.00,,,-99.99,,2013-06-16 15:03:00,
2013-06-16 07:08:00,55.8,48.9,30.14,North,0,0.0,-999.0,77,0.00,,,-99.99,,2013-06-16 15:08:00,
2013-06-16 07:13:00,55.1,48.2,30.14,North,0,0.0,-999.0,77,0.00,,,-99.99,,2013-06-16 15:13:00,
2013-06-16 07:18:00,55.8,49.1,30.14,North,0,0.0,-999.0,78,0.00,,,-99.99,,2013-06-16 15:18:00,
2013-06-16 07:23:00,56.9,49.2,30.14,North,0,0.0,-999.0,75,0.00,,,-99.99,,2013-06-16 15:23:00,
2013-06-16 07:29:00,57.5,49.2,30.14,North,0,0.0,-999.0,73,0.00,,,-99.99,,2013-06-16 15:29:00,
2013-06-16 07:34:00,57.9,49.4,30.14,North,0,0.0,-999.0,73,0.00,,,-99.99,,2013-06-16 15:34:00,
2013-06-16 07:39:00,57.2,49.1,30.14,North,0,0.0,-999.0,74,0.00,,,-99.99,,2013-06-16 15:39:00,
2013-06-16 07:44:00,57.9,49.5,30.14,North,0,0.0,-999.0,73,0.00,,,-99.99,,2013-06-16 15:44:00,
2013-06-16 07:49:00,58.5,49.7,30.14,North,0,0.0,-999.0,72,0.00,,,-99.99,,2013-06-16 15:49:00,
2013-06-16 07:55:00,59.5,49.6,30.14,North,0,0.0,-999.0,69,0.00,,,-99.99,,2013-06-16 15:55:00,
2013-06-16 08:00:00,58.8,49.2,30.14,North,0,0.0,-999.0,70,0.00,,,-99.99,,2013-06-16 16:00:00,
2013-06-16 08:05:00,58.0,49.6,30.14,North,0,0.0,-999.0,73,0.00,,,-99.99,,2013-06-16 16:05:00,
2013-06-16 08:10:00,58.6,50.1,30.14,North,0,0.0,-999.0,73,0.00,,,-99.99,,2013-06-16 16:10:00,
2013-06-16 08:15:00,60.4,50.7,30.14,North,0,0.0,-999.0,70,0.00,,,-99.99,,2013-06-16 16:15:00,
2013-06-16 08:21:00,61.3,49.9,30.14,North,0,0.0,-999.0,66,0.00,,,-99.99,,2013-06-16 16:21:00,
2013-06-16 08:26:00,62.0,50.4,30.14,North,0,0.0,-999.0,65,0.00,,,-99.99,,2013-06-16 16:26:00,
2013-06-16 08:31:00,62.1,50.3,30.14,North,0,0.0,-999.0,65,0.00,,,-99.99,,2013-06-16 16:31:00,
2013-06-16 08:36:00,62.3,50.4,30.14,North,0,0.0,-999.0,65,0.00,,,-99.99,,2013-06-16 16:36:00,
2013-06-16 08:41:00,62.1,50.2,30.14,North,0,0.0,-999.0,64,0.00,,,-99.99,,2013-06-16 16:41:00,
2013-06-16 08:47:00,61.8,50.1,30.14,North,0,0.0,-999.0,65,0.00,,,-99.99,,2013-06-16 16:47:00,
2013-06-16 08:52:00,61.8,49.7,30.14,North,0,0.0,-999.0,64,0.00,,,-99.99,,2013-06-16 16:52:00,
2013-06-16 08:57:00,62.1,49.9,30.14,North,0,0.0,-999.0,64,0.00,,,-99.99,,2013-06-16 16:57:00,
2013-06-16 09:02:00,63.1,49.6,30.13,North,0,0.0,-999.0,61,0.00,,,-99.99,,2013-06-16 17:02:00,
2013-06-16 09:07:00,62.9,49.6,30.13,North,0,0.0,-999.0,61,0.00,,,-99.99,,2013-06-16 17:07:00,
2013-06-16 09:13:00,62.8,49.9,30.13,North,0,0.0,-999.0,62,0.00,,,-99.99,,2013-06-16 17:13:00,
2013-06-16 09:18:00,63.2,49.7,30.13,North,0,0.0,-999.0,61,0.00,,,-99.99,,2013-06-16 17:18:00,
2013-06-16 09:23:00,63.5,49.4,30.13,North,0,0.0,-999.0,59,0.00,,,-99.99,,2013-06-16 17:23:00,
2013-06-16 09:28:00,64.6,49.7,30.13,North,0,0.0,-999.0,58,0.00,,,-99.99,,2013-06-16 17:28:00,
2013-06-16 09:33:00,64.8,49.5,30.13,North,0,0.0,-999.0,57,0.00,,,-99.99,,2013-06-16 17:33:00,
2013-06-16 09:39:00,65.6,49.5,30.13,North,0,0.0,-999.0,55,0.00,,,-99.99,,2013-06-16 17:39:00,
2013-06-16 09:44:00,65.3,48.9,30.13,North,0,0.0,-999.0,55,0.00,,,-99.99,,2013-06-16 17:44:00,
2013-06-16 09:49:00,65.4,49.4,30.13,North,0,0.0,-999.0,56,0.00,,,-99.99,,2013-06-16 17:49:00,
2013-06-16 09:54:00,65.4,49.8,30.13,North,0,0.0,-999.0,57,0.00,,,-99.99,,2013-06-16 17:54:00,
2013-06-16 09:59:00,65.4,50.0,30.14,North,0,0.0,-999.0,57,0.00,,,-99.99,,2013-06-16 17:59:00,
2013-06-16 10:05:00,65.8,49.6,30.14,North,0,0.0,-999.0,55,0.00,,,-99.99,,2013-06-16 18:05:00,
2013-06-16 10:10:00,64.2,49.0,30.14,North,0,0.0,-999.0,57,0.00,,,-99.99,,2013-06-16 18:10:00,
2013-06-16 10:15:00,65.1,49.0,30.14,North,0,0.0,-999.0,55,0.00,,,-99.99,,2013-06-16 18:15:00,
2013-06-16 10:20:00,63.4,48.9,30.14,North,0,0.0,-999.0,59,0.00,,,-99.99,,2013-06-16 18:20:00,
2013-06-16 10:25:00,64.2,49.5,30.14,North,0,0.0,-999.0,58,0.00,,,-99.99,,2013-06-16 18:25:00,
2013-06-16 10:31:00,66.4,49.6,30.14,North,0,0.0,-999.0,54,0.00,,,-99.99,,2013-06-16 18:31:00,
2013-06-16 10:36:00,66.1,49.4,30.14,North,0,0.0,-999.0,54,0.00,,,-99.99,,2013-06-16 18:36:00,
2013-06-16 10:41:00,66.8,48.8,30.14,North,0,0.0,-999.0,52,0.00,,,-99.99,,2013-06-16 18:41:00,
2013-06-16 10:46:00,67.7,49.0,30.14,North,0,0.0,-999.0,51,0.00,,,-99.99,,2013-06-16 18:46:00,
2013-06-16 10:51:00,65.9,48.4,30.14,North,0,0.0,-999.0,53,0.00,,,-99.99,,2013-06-16 18:51:00,
2013-06-16 10:57:00,66.2,49.0,30.14,North,0,0.0,-999.0,53,0.00,,,-99.99,,2013-06-16 18:57:00,
2013-06-16 11:02:00,67.2,48.7,30.13,North,0,0.0,-999.0,51,0.00,,,-99.99,,2013-06-16 19:02:00,
2013-06-16 11:07:00,68.0,49.0,30.13,North,0,0.0,-999.0,50,0.00,,,-99.99,,2013-06-16 19:07:00,
2013-06-16 11:12:00,68.6,48.8,30.13,North,0,0.0,-999.0,49,0.00,,,-99.99,,2013-06-16 19:12:00,
2013-06-16 11:17:00,68.8,48.9,30.13,North,0,0.0,-999.0,49,0.00,,,-99.99,,2013-06-16 19:17:00,
2013-06-16 11:23:00,69.1,48.8,30.13,North,0,0.0,-999.0,48,0.00,,,-99.99,,2013-06-16 19:23:00,
2013-06-16 11:28:00,69.2,48.8,30.13,North,0,0.0,-999.0,48,0.00,,,-99.99,,2013-06-16 19:28:00,
2013-06-16 11:33:00,69.9,49.0,30.13,North,0,0.0,-999.0,47,0.00,,,-99.99,,2013-06-16 19:33:00,
2013-06-16 11:38:00,70.2,48.7,30.13,North,0,0.0,-999.0,46,0.00,,,-99.99,,2013-06-16 19:38:00,
2013-06-16 11:43:00,70.0,48.7,30.13,North,0,0.0,-999.0,46,0.00,,,-99.99,,2013-06-16 19:43:00,
2013-06-16 11:49:00,69.9,48.6,30.13,North,0,0.0,-999.0,46,0.00,,,-99.99,,2013-06-16 19:49:00,
2013-06-16 11:54:00,69.0,48.5,30.13,North,0,0.0,-999.0,47,0.00,,,-99.99,,2013-06-16 19:54:00,
2013-06-16 11:59:00,69.4,49.0,30.13,North,0,0.0,-999.0,48,0.00,,,-99.99,,2013-06-16 19:59:00,
2013-06-16 12:04:00,69.1,48.9,30.13,North,0,0.0,-999.0,48,0.00,,,-99.99,,2013-06-16 20:04:00,
2013-06-16 12:09:00,68.7,48.6,30.13,North,0,0.0,-999.0,48,0.00,,,-99.99,,2013-06-16 20:09:00,
2013-06-16 12:14:00,68.5,48.6,30.13,North,0,0.0,-999.0,48,0.00,,,-99.99,,2013-06-16 20:14:00,
2013-06-16 12:19:00,69.2,48.6,30.13,North,0,0.0,-999.0,47,0.00,,,-99.99,,2013-06-16 20:19:00,
2013-06-16 12:24:00,69.5,48.4,30.13,North,0,0.0,-999.0,47,0.00,,,-99.99,,2013-06-16 20:24:00,
2013-06-16 12:29:00,69.1,47.8,30.13,North,0,0.0,-999.0,46,0.00,,,-99.99,,2013-06-16 20:29:00,
2013-06-16 12:34:00,69.1,48.2,30.13,North,0,0.0,-999.0,47,0.00,,,-99.99,,2013-06-16 20:34:00,
2013-06-16 12:39:00,69.1,47.8,30.13,North,0,0.0,-999.0,46,0.00,,,-99.99,,2013-06-16 20:39:00,
2013-06-16 12:44:00,67.5,47.9,30.13,North,0,0.0,-999.0,49,0.00,,,-99.99,,2013-06-16 20:44:00,
2013-06-16 12:49:00,69.4,48.3,30.13,North,0,0.0,-999.0,47,0.00,,,-99.99,,2013-06-16 20:49:00,
2013-06-16 12:54:00,70.0,48.3,30.13,North,0,0.0,-999.0,46,0.00,,,-99.99,,2013-06-16 20:54:00,
2013-06-16 12:59:00,70.3,48.3,30.13,North,0,0.0,-999.0,45,0.00,,,-99.99,,2013-06-16 20:59:00,
2013-06-16 13:04:00,70.6,48.2,30.13,North,0,0.0,-999.0,44,0.00,,,-99.99,,2013-06-16 21:04:00,
2013-06-16 13:09:00,71.0,48.0,30.13,North,0,0.0,-999.0,43,0.00,,,-99.99,,2013-06-16 21:09:00,
2013-06-16 13:14:00,70.9,48.1,30.13,North,0,0.0,-999.0,44,0.00,,,-99.99,,2013-06-16 21:14:00,
2013-06-16 13:19:00,70.8,48.2,30.13,North,0,0.0,-999.0,44,0.00,,,-99.99,,2013-06-16 21:19:00,
2013-06-16 13:24:00,69.4,48.1,30.13,North,0,0.0,-999.0,46,0.00,,,-99.99,,2013-06-16 21:24:00,
2013-06-16 13:29:00,69.8,48.5,30.13,North,0,0.0,-999.0,46,0.00,,,-99.99,,2013-06-16 21:29:00,
2013-06-16 13:34:00,69.5,48.6,30.13,North,0,0.0,-999.0,47,0.00,,,-99.99,,2013-06-16 21:34:00,
2013-06-16 13:39:00,70.5,48.5,30.13,North,0,0.0,-999.0,45,0.00,,,-99.99,,2013-06-16 21:39:00,
2013-06-16 13:44:00,70.3,48.4,30.13,North,0,0.0,-999.0,45,0.00,,,-99.99,,2013-06-16 21:44:00,
2013-06-16 13:49:00,70.5,48.7,30.13,North,0,0.0,-999.0,45,0.00,,,-99.99,,2013-06-16 21:49:00,
2013-06-16 13:55:00,70.3,48.8,30.13,North,0,0.0,-999.0,46,0.00,,,-99.99,,2013-06-16 21:55:00,
2013-06-16 14:00:00,70.9,48.4,30.13,North,0,0.0,-999.0,44,0.00,,,-99.99,,2013-06-16 22:00:00,
2013-06-16 14:06:00,71.1,48.3,30.13,North,0,0.0,-999.0,44,0.00,,,-99.99,,2013-06-16 22:06:00,
2013-06-16 14:11:00,71.6,48.8,30.13,North,0,0.0,-999.0,44,0.00,,,-99.99,,2013-06-16 22:11:00,
2013-06-16 14:16:00,71.3,48.7,30.13,North,0,0.0,-999.0,44,0.00,,,-99.99,,2013-06-16 22:16:00,
2013-06-16 14:22:00,71.6,49.1,30.13,North,0,0.0,-999.0,44,0.00,,,-99.99,,2013-06-16 22:22:00,
2013-06-16 14:27:00,71.4,48.4,30.13,North,0,0.0,-999.0,44,0.00,,,-99.99,,2013-06-16 22:27:00,
2013-06-16 14:32:00,71.4,48.7,30.13,North,0,0.0,-999.0,44,0.00,,,-99.99,,2013-06-16 22:32:00,
2013-06-16 14:37:00,71.7,48.6,30.13,North,0,0.0,-999.0,43,0.00,,,-99.99,,2013-06-16 22:37:00,
2013-06-16 14:42:00,72.3,48.5,30.13,North,0,0.0,-999.0,42,0.00,,,-99.99,,2013-06-16 22:42:00,
2013-06-16 14:47:00,72.2,48.1,30.13,North,0,0.0,-999.0,42,0.00,,,-99.99,,2013-06-16 22:47:00,
2013-06-16 14:52:00,72.8,48.2,30.13,North,0,0.0,-999.0,41,0.00,,,-99.99,,2013-06-16 22:52:00,
2013-06-16 14:57:00,72.9,48.0,30.13,North,0,0.0,-999.0,41,0.00,,,-99.99,,2013-06-16 22:57:00,
2013-06-16 15:02:00,72.9,48.0,30.12,North,0,0.0,-999.0,41,0.00,,,-99.99,,2013-06-16 23:02:00,
2013-06-16 15:07:00,72.5,48.7,30.12,North,0,0.0,-999.0,42,0.00,,,-99.99,,2013-06-16 23:07:00,
2013-06-16 15:12:00,72.9,49.0,30.12,North,0,0.0,-999.0,42,0.00,,,-99.99,,2013-06-16 23:12:00,
2013-06-16 15:17:00,72.8,48.8,30.12,North,0,0.0,-999.0,42,0.00,,,-99.99,,2013-06-16 23:17:00,
2013-06-16 15:22:00,72.2,48.0,30.12,North,0,0.0,-999.0,42,0.00,,,-99.99,,2013-06-16 23:22:00,
2013-06-16 15:27:00,72.3,48.1,30.12,North,0,0.0,-999.0,42,0.00,,,-99.99,,2013-06-16 23:27:00,
2013-06-16 15:32:00,72.9,48.3,30.12,North,0,0.0,-999.0,41,0.00,,,-99.99,,2013-06-16 23:32:00,
2013-06-16 15:37:00,72.6,48.3,30.12,North,0,0.0,-999.0,42,0.00,,,-99.99,,2013-06-16 23:37:00,
2013-06-16 15:42:00,73.8,48.6,30.12,North,0,0.0,-999.0,40,0.00,,,-99.99,,2013-06-16 23:42:00,
2013-06-16 15:47:00,73.3,48.1,30.12,North,0,0.0,-999.0,40,0.00,,,-99.99,,2013-06-16 23:47:00,
2013-06-16 15:52:00,72.9,48.0,30.12,North,0,0.0,-999.0,41,0.00,,,-99.99,,2013-06-16 23:52:00,
2013-06-16 15:57:00,72.9,48.2,30.12,North,0,0.0,-999.0,41,0.00,,,-99.99,,2013-06-16 23:57:00,
2013-06-16 16:02:00,73.1,47.8,30.11,North,0,0.0,-999.0,40,0.00,,,-99.99,,2013-06-17 00:02:00,
2013-06-16 16:07:00,73.5,47.8,30.11,North,0,0.0,-999.0,40,0.00,,,-99.99,,2013-06-17 00:07:00,
2013-06-16 16:12:00,73.8,47.8,30.11,North,0,0.0,-999.0,39,0.00,,,-99.99,,2013-06-17 00:12:00,
2013-06-16 16:17:00,73.9,48.0,30.11,North,0,0.0,-999.0,39,0.00,,,-99.99,,2013-06-17 00:17:00,
2013-06-16 16:22:00,74.2,47.6,30.11,North,0,0.0,-999.0,38,0.00,,,-99.99,,2013-06-17 00:22:00,
2013-06-16 16:27:00,74.3,47.7,30.11,North,0,0.0,-999.0,38,0.00,,,-99.99,,2013-06-17 00:27:00,
2013-06-16 16:32:00,72.8,47.0,30.11,North,0,0.0,-999.0,39,0.00,,,-99.99,,2013-06-17 00:32:00,
2013-06-16 16:37:00,72.2,47.0,30.11,North,0,0.0,-999.0,40,0.00,,,-99.99,,2013-06-17 00:37:00,
2013-06-16 16:42:00,73.1,47.1,30.11,North,0,0.0,-999.0,39,0.00,,,-99.99,,2013-06-17 00:42:00,
2013-06-16 16:47:00,72.7,46.8,30.11,North,0,0.0,-999.0,39,0.00,,,-99.99,,2013-06-17 00:47:00,
2013-06-16 16:52:00,72.6,46.8,30.11,North,0,0.0,-999.0,39,0.00,,,-99.99,,2013-06-17 00:52:00,
2013-06-16 16:57:00,73.0,46.2,30.11,North,0,0.0,-999.0,38,0.00,,,-99.99,,2013-06-17 00:57:00,
2013-06-16 17:02:00,72.7,46.6,30.11,North,0,0.0,-999.0,39,0.00,,,-99.99,,2013-06-17 01:02:00,
2013-06-16 17:07:00,73.6,46.9,30.11,North,0,0.0,-999.0,38,0.00,,,-99.99,,2013-06-17 01:07:00,
2013-06-16 17:12:00,73.5,45.8,30.11,North,0,0.0,-999.0,37,0.00,,,-99.99,,2013-06-17 01:12:00,
2013-06-16 17:17:00,72.4,46.8,30.11,North,0,0.0,-999.0,39,0.00,,,-99.99,,2013-06-17 01:17:00,
2013-06-16 17:22:00,73.5,46.8,30.11,North,0,0.0,-999.0,38,0.00,,,-99.99,,2013-06-17 01:22:00,
2013-06-16 17:27:00,72.3,46.4,30.11,North,0,0.0,-999.0,39,0.00,,,-99.99,,2013-06-17 01:27:00,
2013-06-16 17:32:00,73.4,46.3,30.11,North,0,0.0,-999.0,37,0.00,,,-99.99,,2013-06-17 01:32:00,
2013-06-16 17:37:00,73.3,46.7,30.11,North,0,0.0,-999.0,38,0.00,,,-99.99,,2013-06-17 01:37:00,
2013-06-16 17:42:00,74.2,46.8,30.11,North,0,0.0,-999.0,37,0.00,,,-99.99,,2013-06-17 01:42:00,
2013-06-16 17:47:00,74.0,46.6,30.11,North,0,0.0,-999.0,37,0.00,,,-99.99,,2013-06-17 01:47:00,
2013-06-16 17:52:00,74.6,46.6,30.11,North,0,0.0,-999.0,36,0.00,,,-99.99,,2013-06-17 01:52:00,
2013-06-16 17:57:00,74.5,46.5,30.11,North,0,0.0,-999.0,36,0.00,,,-99.99,,2013-06-17 01:57:00,
2013-06-16 18:02:00,74.0,46.3,30.10,North,0,0.0,-999.0,37,0.00,,,-99.99,,2013-06-17 02:02:00,
2013-06-16 18:07:00,73.6,46.2,30.10,North,0,0.0,-999.0,37,0.00,,,-99.99,,2013-06-17 02:07:00,
2013-06-16 18:12:00,73.6,46.2,30.10,North,0,0.0,-999.0,37,0.00,,,-99.99,,2013-06-17 02:12:00,
2013-06-16 18:17:00,73.8,45.8,30.10,North,0,0.0,-999.0,36,0.00,,,-99.99,,2013-06-17 02:17:00,
2013-06-16 18:22:00,73.4,45.9,30.10,North,0,0.0,-999.0,37,0.00,,,-99.99,,2013-06-17 02:22:00,
2013-06-16 18:27:00,73.7,46.1,30.10,North,0,0.0,-999.0,37,0.00,,,-99.99,,2013-06-17 02:27:00,
2013-06-16 18:34:00,73.4,45.8,30.10,North,0,0.0,-999.0,37,0.00,,,-99.99,,2013-06-17 02:34:00,
2013-06-16 18:39:00,73.3,45.6,30.10,North,0,0.0,-999.0,37,0.00,,,-99.99,,2013-06-17 02:39:00,
2013-06-16 18:44:00,73.0,45.2,30.10,North,0,0.0,-999.0,36,0.00,,,-99.99,,2013-06-17 02:44:00,
2013-06-16 18:49:00,73.3,45.0,30.10,North,0,0.0,-999.0,36,0.00,,,-99.99,,2013-06-17 02:49:00,
2013-06-16 18:54:00,73.1,45.3,30.10,North,0,0.0,-999.0,36,0.00,,,-99.99,,2013-06-17 02:54:00,
2013-06-16 19:00:00,73.2,45.6,30.07,North,0,0.0,-999.0,37,0.00,,,-99.99,,2013-06-17 03:00:00,
2013-06-16 19:05:00,73.1,45.7,30.07,North,0,0.0,-999.0,37,0.00,,,-99.99,,2013-06-17 03:05:00,
2013-06-16 19:10:00,73.0,45.2,30.07,North,0,0.0,-999.0,36,0.00,,,-99.99,,2013-06-17 03:10:00,
2013-06-16 19:15:00,72.6,44.7,30.07,North,0,0.0,-999.0,36,0.00,,,-99.99,,2013-06-17 03:15:00,
2013-06-16 19:20:00,72.7,44.8,30.07,North,0,0.0,-999.0,36,0.00,,,-99.99,,2013-06-17 03:20:00,
2013-06-16 19:26:00,72.2,44.9,30.07,North,0,0.0,-999.0,37,0.00,,,-99.99,,2013-06-17 03:26:00,
2013-06-16 19:31:00,71.9,44.8,30.07,North,0,0.0,-999.0,37,0.00,,,-99.99,,2013-06-17 03:31:00,
2013-06-16 19:36:00,71.8,44.9,30.07,North,0,0.0,-999.0,38,0.00,,,-99.99,,2013-06-17 03:36:00,
2013-06-16 19:41:00,71.6,45.2,30.07,North,0,0.0,-999.0,38,0.00,,,-99.99,,2013-06-17 03:41:00,
2013-06-16 19:46:00,72.1,45.1,30.07,North,0,0.0,-999.0,38,0.00,,,-99.99,,2013-06-17 03:46:00,
2013-06-16 19:52:00,72.2,44.9,30.07,North,0,0.0,-999.0,37,0.00,,,-99.99,,2013-06-17 03:52:00,
2013-06-16 19:57:00,71.7,44.7,30.07,North,0,0.0,-999.0,37,0.00,,,-99.99,,2013-06-17 03:57:00,
2013-06-16 20:01:00,71.8,45.2,30.08,North,0,0.0,-999.0,38,0.00,,,-99.99,,2013-06-17 04:01:00,
2013-06-16 20:02:00,71.7,45.3,30.08,North,0,0.0,-999.0,38,0.00,,,-99.99,,2013-06-17 04:02:00,
2013-06-16 20:06:00,71.8,45.0,30.08,North,0,0.0,-999.0,38,0.00,,,-99.99,,2013-06-17 04:06:00,
2013-06-16 20:09:00,71.2,47.8,30.08,North,0,0.0,-999.0,43,0.00,,,-99.99,,2013-06-17 04:09:00,
2013-06-16 20:14:00,70.3,47.6,30.08,North,0,0.0,-999.0,44,0.00,,,-99.99,,2013-06-17 04:14:00,
2013-06-16 20:19:00,70.3,48.7,30.08,North,0,0.0,-999.0,46,0.00,,,-99.99,,2013-06-17 04:19:00,
2013-06-16 20:20:00,70.2,48.8,30.08,North,0,0.0,-999.0,46,0.00,,,-99.99,,2013-06-17 04:20:00,
2013-06-16 20:25:00,70.5,47.0,30.08,North,0,0.0,-999.0,43,0.00,,,-99.99,,2013-06-17 04:25:00,
2013-06-16 20:31:00,70.7,46.6,30.08,North,0,0.0,-999.0,42,0.00,,,-99.99,,2013-06-17 04:31:00,
2013-06-16 20:36:00,70.5,46.9,30.08,North,0,0.0,-999.0,42,0.00,,,-99.99,,2013-06-17 04:36:00,
2013-06-16 20:41:00,70.3,47.8,30.08,North,0,0.0,-999.0,44,0.00,,,-99.99,,2013-06-17 04:41:00,
2013-06-16 20:46:00,70.1,48.3,30.08,North,0,0.0,-999.0,45,0.00,,,-99.99,,2013-06-17 04:46:00,
2013-06-16 20:51:00,69.9,48.3,30.08,North,0,0.0,-999.0,46,0.00,,,-99.99,,2013-06-17 04:51:00,
2013-06-16 20:57:00,69.6,49.7,30.08,North,0,0.0,-999.0,49,0.00,,,-99.99,,2013-06-17 04:57:00,
2013-06-16 21:02:00,68.9,50.4,30.08,North,0,0.0,-999.0,51,0.00,,,-99.99,,2013-06-17 05:02:00,
2013-06-16 21:07:00,68.8,50.4,30.08,North,0,0.0,-999.0,51,0.00,,,-99.99,,2013-06-17 05:07:00,
2013-06-16 21:12:00,68.6,50.2,30.08,North,0,0.0,-999.0,51,0.00,,,-99.99,,2013-06-17 05:12:00,
2013-06-16 21:17:00,68.6,48.0,30.08,North,0,0.0,-999.0,47,0.00,,,-99.99,,2013-06-17 05:17:00,
2013-06-16 21:23:00,68.6,48.8,30.08,North,0,0.0,-999.0,49,0.00,,,-99.99,,2013-06-17 05:23:00,
2013-06-16 21:28:00,68.5,48.9,30.08,North,0,0.0,-999.0,49,0.00,,,-99.99,,2013-06-17 05:28:00,
2013-06-16 21:33:00,68.2,49.3,30.08,North,0,0.0,-999.0,50,0.00,,,-99.99,,2013-06-17 05:33:00,
2013-06-16 21:38:00,67.7,48.7,30.08,North,0,0.0,-999.0,50,0.00,,,-99.99,,2013-06-17 05:38:00,
2013-06-16 21:43:00,67.3,48.0,30.08,North,0,0.0,-999.0,49,0.00,,,-99.99,,2013-06-17 05:43:00,
2013-06-16 21:49:00,66.9,48.3,30.08,North,0,0.0,-999.0,51,0.00,,,-99.99,,2013-06-17 05:49:00,
2013-06-16 21:54:00,66.7,47.5,30.08,North,0,0.0,-999.0,50,0.00,,,-99.99,,2013-06-17 05:54:00,
2013-06-16 21:59:00,66.2,48.6,30.07,North,0,0.0,-999.0,53,0.00,,,-99.99,,2013-06-17 05:59:00,
2013-06-16 22:04:00,65.9,48.9,30.07,North,0,0.0,-999.0,54,0.00,,,-99.99,,2013-06-17 06:04:00,
2013-06-16 22:09:00,65.6,48.7,30.07,North,0,0.0,-999.0,54,0.00,,,-99.99,,2013-06-17 06:09:00,
2013-06-16 22:15:00,65.3,49.7,30.07,North,0,0.0,-999.0,57,0.00,,,-99.99,,2013-06-17 06:15:00,
2013-06-16 22:20:00,65.0,49.8,30.07,North,0,0.0,-999.0,57,0.00,,,-99.99,,2013-06-17 06:20:00,
2013-06-16 22:25:00,64.8,50.4,30.07,North,0,0.0,-999.0,59,0.00,,,-99.99,,2013-06-17 06:25:00,
2013-06-16 22:30:00,64.5,50.4,30.07,North,0,0.0,-999.0,60,0.00,,,-99.99,,2013-06-17 06:30:00,
2013-06-16 22:35:00,64.0,50.2,30.07,North,0,0.0,-999.0,60,0.00,,,-99.99,,2013-06-17 06:35:00,
2013-06-16 22:41:00,63.7,50.3,30.07,North,0,0.0,-999.0,61,0.00,,,-99.99,,2013-06-17 06:41:00,
2013-06-16 22:46:00,63.2,49.8,30.07,North,0,0.0,-999.0,61,0.00,,,-99.99,,2013-06-17 06:46:00,
2013-06-16 22:51:00,62.6,49.8,30.07,North,0,0.0,-999.0,62,0.00,,,-99.99,,2013-06-17 06:51:00,
2013-06-16 22:56:00,62.3,49.8,30.07,North,0,0.0,-999.0,63,0.00,,,-99.99,,2013-06-17 06:56:00,
2013-06-16 23:01:00,62.0,50.1,30.07,North,0,0.0,-999.0,65,0.00,,,-99.99,,2013-06-17 07:01:00,
2013-06-16 23:07:00,61.7,50.2,30.07,North,0,0.0,-999.0,65,0.00,,,-99.99,,2013-06-17 07:07:00,
2013-06-16 23:12:00,61.5,50.0,30.07,North,0,0.0,-999.0,65,0.00,,,-99.99,,2013-06-17 07:12:00,
2013-06-16 23:17:00,61.5,50.0,30.07,North,0,0.0,-999.0,65,0.00,,,-99.99,,2013-06-17 07:17:00,
2013-06-16 23:22:00,61.0,49.7,30.07,North,0,0.0,-999.0,66,0.00,,,-99.99,,2013-06-17 07:22:00,
2013-06-16 23:27:00,60.8,49.7,30.07,North,0,0.0,-999.0,66,0.00,,,-99.99,,2013-06-17 07:27:00,
2013-06-16 23:33:00,60.4,49.9,30.07,North,0,0.0,-999.0,68,0.00,,,-99.99,,2013-06-17 07:33:00,
2013-06-16 23:38:00,60.1,50.1,30.07,North,0,0.0,-999.0,69,0.00,,,-99.99,,2013-06-17 07:38:00,
2013-06-16 23:43:00,59.8,49.9,30.07,North,0,0.0,-999.0,69,0.00,,,-99.99,,2013-06-17 07:43:00,
2013-06-16 23:48:00,59.8,50.0,30.07,North,0,0.0,-999.0,69,0.00,,,-99.99,,2013-06-17 07:48:00,
2013-06-16 23:53:00,59.4,49.7,30.07,North,0,0.0,-999.0,69,0.00,,,-99.99,,2013-06-17 07:53:00,
2013-06-16 23:59:00,59.0,49.6,30.05,North,0,0.0,-999.0,70,0.00,,,-99.99,,2013-06-17 07:59:00,